TimeEDT,TemperatureF,Dew PointF,Humidity,Sea Level PressureIn,VisibilityMPH,Wind Direction,Wind SpeedMPH,Gust SpeedMPH,PrecipitationIn,Events,Conditions,WindDirDegrees,DateUTC
12:28 AM,44.6,42.8,93,29.98,10.0,North,5.8,-,N/A,,Scattered Clouds,360,2011-10-03 04:28:00
12:42 AM,44.6,42.8,93,29.98,10.0,NW,6.9,-,N/A,,Overcast,320,2011-10-03 04:42:00
12:51 AM,44.6,44.6,100,29.98,4.0,NNW,8.1,-,N/A,,Overcast,330,2011-10-03 04:51:00
1:51 AM,46.0,44.1,93,30.00,7.0,NNW,6.9,-,N/A,,Overcast,340,2011-10-03 05:51:00
2:42 AM,46.4,44.6,93,29.97,10.0,NNW,5.8,-,N/A,,Overcast,340,2011-10-03 06:42:00
2:51 AM,45.0,44.1,97,29.99,10.0,NW,6.9,-,N/A,,Overcast,320,2011-10-03 06:51:00
3:33 AM,46.4,44.6,93,29.98,7.0,NNW,11.5,-,N/A,,Overcast,340,2011-10-03 07:33:00
3:51 AM,46.9,45.0,93,29.99,7.0,NNW,13.8,-,N/A,,Overcast,330,2011-10-03 07:51:00
4:27 AM,46.4,44.6,93,29.97,10.0,NNW,9.2,-,N/A,,Overcast,340,2011-10-03 08:27:00
4:51 AM,46.9,45.0,93,29.99,10.0,NW,4.6,-,N/A,,Overcast,310,2011-10-03 08:51:00
5:51 AM,46.0,45.0,96,30.01,10.0,NW,3.5,-,0.00,Rain,Light Rain,310,2011-10-03 09:51:00
6:17 AM,46.4,44.6,93,29.97,10.0,West,5.8,-,0.00,,Overcast,260,2011-10-03 10:17:00
6:51 AM,46.0,45.0,96,29.99,10.0,West,6.9,-,0.00,,Overcast,270,2011-10-03 10:51:00
7:12 AM,46.4,44.6,93,29.99,7.0,Calm,Calm,-,N/A,,Overcast,0,2011-10-03 11:12:00
7:51 AM,46.4,46.4,100,29.99,2.0,West,3.5,-,N/A,Rain,Light Rain,270,2011-10-03 11:51:00
7:56 AM,46.4,46.4,100,30.00,1.0,West,3.5,-,0.00,Rain,Light Rain,280,2011-10-03 11:56:00
8:13 AM,46.4,46.4,100,30.00,0.5,WNW,3.5,-,0.00,Fog-Rain,Light Rain,290,2011-10-03 12:13:00
8:51 AM,46.9,46.0,97,30.03,0.8,WNW,3.5,-,0.01,Rain,Light Rain,300,2011-10-03 12:51:00
9:51 AM,50.0,48.2,94,30.02,1.0,NNW,4.6,-,N/A,,Overcast,340,2011-10-03 13:51:00
10:03 AM,50.0,48.2,94,30.02,2.0,North,4.6,-,N/A,,Overcast,350,2011-10-03 14:03:00
10:31 AM,51.8,48.2,88,30.02,3.0,Calm,Calm,-,N/A,,Overcast,0,2011-10-03 14:31:00
10:51 AM,51.1,48.9,92,30.03,10.0,NNE,4.6,-,N/A,,Overcast,20,2011-10-03 14:51:00
11:51 AM,52.0,50.0,93,30.04,3.0,NNE,4.6,-,N/A,,Overcast,30,2011-10-03 15:51:00
12:03 PM,51.8,48.2,88,30.03,0.5,North,4.6,-,N/A,Fog,Light Drizzle,10,2011-10-03 16:03:00
12:29 PM,51.8,50.0,94,30.03,1.0,Calm,Calm,-,0.01,,Light Drizzle,0,2011-10-03 16:29:00
12:39 PM,51.8,50.0,94,30.04,5.0,NNW,3.5,-,0.01,,Light Drizzle,340,2011-10-03 16:39:00
12:51 PM,51.1,50.0,96,30.06,10.0,Calm,Calm,-,0.01,Rain,Light Rain,0,2011-10-03 16:51:00
1:21 PM,53.6,50.0,88,30.04,10.0,North,5.8,-,0.00,,Overcast,350,2011-10-03 17:21:00
1:51 PM,54.0,50.0,86,30.05,10.0,NNE,4.6,-,0.00,,Overcast,20,2011-10-03 17:51:00
2:14 PM,53.6,50.0,88,30.03,10.0,North,4.6,-,N/A,,Overcast,360,2011-10-03 18:14:00
2:51 PM,54.0,50.0,86,30.05,10.0,NNW,6.9,-,N/A,,Overcast,340,2011-10-03 18:51:00
3:15 PM,53.6,51.8,94,30.04,6.0,NW,8.1,-,0.00,,Light Drizzle,310,2011-10-03 19:15:00
3:51 PM,53.6,51.8,94,30.05,10.0,NW,5.8,-,N/A,,Overcast,310,2011-10-03 19:51:00
4:51 PM,54.0,51.1,90,30.06,10.0,NW,8.1,-,N/A,,Overcast,310,2011-10-03 20:51:00
5:51 PM,53.6,51.8,94,30.07,10.0,NW,8.1,-,N/A,,Overcast,310,2011-10-03 21:51:00
6:30 PM,53.6,51.8,94,30.09,10.0,NW,9.2,-,N/A,,Overcast,310,2011-10-03 22:30:00
6:51 PM,53.1,51.1,93,30.10,10.0,WNW,5.8,-,N/A,,Overcast,300,2011-10-03 22:51:00
7:25 PM,51.8,51.8,100,30.10,10.0,NW,5.8,-,N/A,,Mostly Cloudy,310,2011-10-03 23:25:00
7:35 PM,51.8,51.8,100,30.11,10.0,NNW,6.9,-,N/A,,Mostly Cloudy,340,2011-10-03 23:35:00
7:51 PM,53.1,51.1,93,30.12,10.0,NNW,10.4,-,N/A,,Mostly Cloudy,330,2011-10-03 23:51:00
8:51 PM,52.0,50.0,93,30.13,10.0,NNW,6.9,-,N/A,,Mostly Cloudy,330,2011-10-04 00:51:00
9:29 PM,51.8,50.0,94,30.13,5.0,NW,3.5,-,N/A,,Overcast,320,2011-10-04 01:29:00
9:36 PM,51.8,50.0,94,30.13,2.5,WNW,5.8,-,N/A,Fog,Patches of Fog,300,2011-10-04 01:36:00
9:51 PM,52.0,51.1,97,30.14,2.5,NW,3.5,-,N/A,Fog,Patches of Fog,310,2011-10-04 01:51:00
10:18 PM,51.8,51.8,100,30.13,0.5,NW,6.9,-,N/A,Fog,Fog,310,2011-10-04 02:18:00
10:36 PM,51.8,51.8,100,30.14,0.2,WNW,4.6,-,N/A,Fog,Fog,300,2011-10-04 02:36:00
10:51 PM,51.1,51.1,100,30.15,0.2,Calm,Calm,-,N/A,Fog,Fog,0,2011-10-04 02:51:00
11:51 PM,48.0,46.9,96,30.15,0.1,Calm,Calm,-,N/A,Fog,Fog,0,2011-10-04 03:51:00